Location: Parc des �les de St-Timoth�e
(45.2924°N, 74.0481°W)
Time: 18:11:17
(UTC-04:00)

ISS - All Passes

Search period start: 30 May 2016 00:00
Search period end: 09 June 2016 00:00
Orbit: 402 x 404 km, 51.6° (Epoch: 30 May)

Date Brightness Start Highest point End Pass type
(mag) Time Alt. Az. Time Alt. Az. Time Alt. Az.
30 May - 01:19:30 10° NW 01:22:30 32° NNE 01:25:30 10° E visible
30 May - 02:55:53 10° WNW 02:59:08 66° SSW 03:02:22 10° SE visible
30 May - 19:38:44 10° SSE 19:39:54 12° SE 19:41:05 10° ESE daylight
30 May - 21:12:35 10° SW 21:15:51 77° SSE 21:19:06 10° ENE visible
30 May - 22:49:34 10° WNW 22:52:32 31° NNW 22:55:30 10° NE visible
31 May - 00:26:42 10° NW 00:29:35 27° N 00:32:27 10° ENE visible
31 May - 02:03:07 10° WNW 02:06:24 74° NNE 02:09:39 10° ESE visible
31 May - 03:40:14 10° W 03:42:30 18° SW 03:44:46 10° S visible
31 May - 20:20:01 10° SW 20:23:08 43° SE 20:26:16 10° ENE daylight
31 May - 21:56:31 10° W 21:59:37 39° NNW 22:02:44 10° NE visible
31 May - 23:33:49 10° WNW 23:36:37 26° N 23:39:26 10° ENE visible
01 Jun - 01:10:23 10° NW 01:13:34 47° NNE 01:16:45 10° E visible
01 Jun - 02:47:00 10° WNW 02:49:56 31° SW 02:52:50 10° SSE visible
01 Jun - 19:27:48 10° SSW 19:30:30 24° SE 19:33:13 10° E daylight
01 Jun - 21:03:32 10° WSW 21:06:45 56° NNW 21:09:59 10° NE daylight
01 Jun - 22:40:49 10° WNW 22:43:39 26° N 22:46:28 10° NE visible
02 Jun - 00:17:37 10° NW 00:20:41 35° NNE 00:23:43 10° E visible
02 Jun - 01:54:02 10° WNW 01:57:15 55° SSW 02:00:27 10° SE visible
02 Jun - 18:36:10 10° SSE 18:37:55 14° SE 18:39:41 10° E daylight
02 Jun - 20:10:40 10° WSW 20:13:56 89° SE 20:17:13 10° ENE daylight
02 Jun - 21:47:45 10° WNW 21:50:40 29° N 21:53:36 10° NE visible
02 Jun - 23:24:49 10° NW 23:27:44 28° N 23:30:38 10° ENE visible
03 Jun - 01:01:13 10° WNW 01:04:30 85° NNE 01:07:45 10° ESE visible
03 Jun - 02:38:36 10° W 02:40:32 15° SW 02:42:27 10° S night (unlit)
03 Jun - 19:17:59 10° SW 19:21:10 51° SE 19:24:22 10° ENE daylight
03 Jun - 20:54:39 10° W 20:57:43 36° NNW 21:00:47 10° NE daylight
03 Jun - 22:31:54 10° NW 22:34:44 26° N 22:37:33 10° ENE visible
04 Jun - 00:08:25 10° NW 00:11:38 53° NNE 00:14:51 10° ESE visible
04 Jun - 01:45:08 10° W 01:47:56 26° SW 01:50:42 10° SSE visible
04 Jun - 18:25:37 10° SSW 18:28:28 28° SE 18:31:21 10° ENE daylight
04 Jun - 20:01:36 10° W 20:04:48 50° NNW 20:08:00 10° NE daylight
04 Jun - 21:38:54 10° WNW 21:41:44 26° N 21:44:32 10° ENE visible
04 Jun - 23:15:38 10° NW 23:18:44 37° NNE 23:21:48 10° E visible
05 Jun - 00:52:05 10° WNW 00:55:14 46° SW 00:58:23 10° SE visible
05 Jun - 17:33:42 10° S 17:35:50 16° SE 17:37:58 10° E daylight
05 Jun - 19:08:39 10° WSW 19:11:55 79° NNW 19:15:12 10° ENE daylight
05 Jun - 20:45:49 10° WNW 20:48:42 28° N 20:51:36 10° NE daylight
05 Jun - 22:22:48 10° NW 22:25:45 30° NNE 22:28:42 10° ENE visible
05 Jun - 23:59:11 10° WNW 00:02:28 83° SSW 00:05:43 10° ESE visible
06 Jun - 01:36:57 10° WSW 01:38:26 13° SW 01:39:54 10° SSW visible
06 Jun - 18:15:52 10° SW 18:19:06 61° SSE 18:22:20 10° ENE daylight
06 Jun - 19:52:40 10° W 19:55:42 33° NNW 19:58:43 10° NE daylight
06 Jun - 21:29:53 10° NW 21:32:44 26° N 21:35:34 10° ENE visible
06 Jun - 23:06:21 10° WNW 23:09:36 61° NNE 23:12:50 10° ESE visible
07 Jun - 00:43:12 10° W 00:45:49 22° SW 00:48:24 10° S visible
07 Jun - 17:23:21 10° SSW 17:26:20 33° SE 17:29:20 10° ENE daylight
07 Jun - 18:59:34 10° W 19:02:43 45° NNW 19:05:54 10° NE daylight
07 Jun - 20:36:52 10° WNW 20:39:41 25° N 20:42:29 10° ENE daylight
07 Jun - 22:13:32 10° NW 22:16:40 41° NNE 22:19:47 10° E visible
07 Jun - 23:50:01 10° WNW 23:53:06 39° SW 23:56:10 10° SSE visible
08 Jun - 16:31:14 10° S 16:33:38 19° SE 16:36:03 10° E daylight
08 Jun - 18:06:32 10° WSW 18:09:47 69° NNW 18:13:03 10° ENE daylight
08 Jun - 19:43:45 10° WNW 19:46:37 27° N 19:49:29 10° NE daylight
08 Jun - 21:20:41 10° NW 21:23:39 32° NNE 21:26:38 10° E visible
08 Jun - 22:57:03 10° WNW 23:00:18 71° SSW 23:03:33 10° SE visible
